Total_Precipitation_Accumulation
0.00 0.00 0.00 0.00 0.00 0.00 0.00 0.00 0.01 0.03 0.07 0.12 0.14 0.12 0.12 0.11 0.12 0.14 0.12 0.12 0.10 0.08 0.09 0.15 0.26 0.44 0.62 0.80 1.03 1.12 0.93 0.78 0.65 0.54 0.54 0.63 0.71 0.74 0.76 0.79 0.84 0.79 0.66
0.01 0.01 0.01 0.01 0.01 0.00 0.00 0.00 0.00 0.00 0.00 0.01 0.02 0.05 0.10 0.12 0.15 0.16 0.14 0.13 0.12 0.09 0.09 0.11 0.18 0.31 0.51 0.73 0.98 1.28 1.21 1.07 0.91 0.72 0.55 0.55 0.62 0.67 0.70 0.75 0.80 0.87 0.82
0.01 0.01 0.01 0.01 0.01 0.00 0.00 0.00 0.00 0.00 0.00 0.00 0.00 0.00 0.01 0.03 0.07 0.12 0.12 0.14 0.16 0.13 0.11 0.12 0.14 0.19 0.33 0.57 0.85 1.17 1.47 1.37 1.20 1.03 0.79 0.57 0.56 0.61 0.66 0.74 0.80 0.86 0.90
0.01 0.01 0.01 0.01 0.01 0.00 0.00 0.01 0.00 0.01 0.00 0.00 0.00 0.00 0.00 0.00 0.00 0.02 0.04 0.09 0.14 0.17 0.15 0.15 0.16 0.17 0.22 0.34 0.59 0.91 1.41 1.54 1.52 1.38 1.21 0.90 0.65 0.60 0.65 0.71 0.81 0.88 0.93
0.01 0.01 0.01 0.01 0.01 0.01 0.01 0.01 0.00 0.00 0.00 0.00 0.00 0.00 0.00 0.00 0.00 0.00 0.00 0.02 0.05 0.11 0.15 0.16 0.16 0.16 0.16 0.20 0.34 0.60 1.01 1.44 1.61 1.59 1.51 1.32 0.97 0.71 0.67 0.71 0.78 0.90 0.99
0.01 0.01 0.01 0.01 0.01 0.01 0.01 0.00 0.00 0.00 0.00 0.00 0.00 0.00 0.00 0.00 0.00 0.00 0.00 0.00 0.01 0.05 0.09 0.12 0.14 0.15 0.15 0.15 0.21 0.35 0.65 1.09 1.53 1.64 1.59 1.58 1.42 1.02 0.78 0.75 0.79 0.90 1.01
0.00 0.01 0.01 0.01 0.01 0.01 0.01 0.00 0.00 0.01 0.01 0.00 0.00 0.00 0.00 0.00 0.00 0.00 0.00 0.00 0.00 0.02 0.06 0.10 0.13 0.14 0.14 0.15 0.15 0.18 0.37 0.72 1.22 1.76 1.78 1.70 1.75 1.54 1.12 0.92 0.90 0.96 1.08
0.00 0.01 0.01 0.01 0.01 0.01 0.01 0.00 0.01 0.02 0.02 0.01 0.03 0.06 0.04 0.01 0.00 0.00 0.00 0.00 0.00 0.00 0.02 0.06 0.12 0.13 0.12 0.14 0.11 0.12 0.17 0.34 0.72 1.37 2.02 2.06 2.02 2.07 1.70 1.29 1.13 1.12 1.22
0.01 0.01 0.01 0.02 0.02 0.01 0.01 0.01 0.02 0.04 0.04 0.02 0.03 0.14 0.24 0.15 0.04 0.00 0.00 0.00 0.00 0.00 0.00 0.02 0.06 0.11 0.14 0.15 0.14 0.12 0.14 0.20 0.36 0.79 1.57 2.30 2.41 2.47 2.38 1.82 1.48 1.36 1.39
0.01 0.01 0.01 0.02 0.02 0.01 0.02 0.02 0.03 0.04 0.07 0.08 0.05 0.06 0.14 0.19 0.24 0.12 0.02 0.03 0.03 0.03 0.02 0.02 0.03 0.07 0.13 0.18 0.21 0.21 0.22 0.23 0.30 0.51 1.01 1.86 2.59 2.82 2.92 2.57 1.97 1.71 1.62
0.01 0.01 0.02 0.02 0.01 0.01 0.02 0.03 0.04 0.05 0.08 0.11 0.11 0.10 0.08 0.07 0.12 0.22 0.10 0.04 0.07 0.08 0.07 0.05 0.06 0.09 0.12 0.20 0.23 0.23 0.30 0.35 0.46 0.52 0.73 1.20 2.13 2.87 3.26 3.26 2.69 2.06 1.80
0.01 0.01 0.02 0.02 0.02 0.02 0.03 0.03 0.05 0.05 0.06 0.08 0.10 0.13 0.16 0.18 0.14 0.18 0.18 0.06 0.03 0.04 0.06 0.08 0.08 0.12 0.15 0.20 0.26 0.35 0.35 0.43 0.60 0.57 0.52 0.69 1.27 2.13 2.92 3.36 3.19 2.53 2.01
0.01 0.02 0.02 0.02 0.02 0.02 0.03 0.04 0.06 0.06 0.05 0.08 0.10 0.12 0.14 0.15 0.15 0.20 0.24 0.14 0.06 0.02 0.01 0.04 0.07 0.10 0.15 0.18 0.22 0.28 0.27 0.33 0.43 0.48 0.40 0.40 0.66 1.22 2.04 2.94 3.35 2.99 2.38
0.01 0.02 0.02 0.02 0.02 0.02 0.03 0.05 0.06 0.06 0.06 0.08 0.09 0.12 0.16 0.13 0.16 0.23 0.30 0.35 0.28 0.08 0.02 0.03 0.04 0.07 0.11 0.16 0.16 0.19 0.16 0.20 0.26 0.34 0.37 0.32 0.38 0.63 1.18 2.08 3.26 3.67 3.09
0.01 0.01 0.01 0.02 0.02 0.02 0.04 0.05 0.06 0.07 0.09 0.11 0.13 0.15 0.20 0.17 0.19 0.22 0.28 0.41 0.59 0.43 0.12 0.03 0.04 0.08 0.13 0.15 0.16 0.16 0.13 0.14 0.19 0.26 0.33 0.35 0.34 0.41 0.63 1.14 2.05 3.34 4.00
0.01 0.01 0.01 0.01 0.02 0.03 0.05 0.07 0.08 0.09 0.13 0.14 0.18 0.21 0.22 0.21 0.22 0.24 0.29 0.34 0.48 0.60 0.36 0.06 0.04 0.08 0.18 0.19 0.17 0.15 0.15 0.16 0.17 0.19 0.22 0.27 0.33 0.39 0.50 0.73 1.20 2.01 3.21
0.01 0.01 0.01 0.02 0.04 0.06 0.08 0.10 0.11 0.12 0.16 0.17 0.20 0.23 0.24 0.26 0.30 0.27 0.31 0.34 0.36 0.43 0.41 0.11 0.04 0.05 0.15 0.22 0.20 0.16 0.15 0.17 0.15 0.16 0.20 0.26 0.34 0.42 0.53 0.67 0.89 1.30 2.01
0.01 0.01 0.02 0.04 0.08 0.12 0.13 0.15 0.16 0.15 0.18 0.20 0.21 0.25 0.27 0.26 0.28 0.26 0.29 0.30 0.28 0.26 0.33 0.21 0.06 0.05 0.11 0.19 0.27 0.27 0.22 0.20 0.18 0.18 0.22 0.30 0.39 0.45 0.52 0.63 0.80 1.05 1.42
0.01 0.01 0.02 0.06 0.14 0.22 0.21 0.17 0.20 0.21 0.21 0.22 0.24 0.28 0.28 0.28 0.27 0.24 0.28 0.29 0.23 0.21 0.26 0.29 0.15 0.08 0.12 0.15 0.26 0.36 0.31 0.27 0.24 0.22 0.23 0.26 0.33 0.42 0.47 0.54 0.68 0.86 1.06
0.01 0.02 0.02 0.04 0.15 0.33 0.37 0.28 0.33 0.31 0.25 0.21 0.18 0.18 0.25 0.35 0.34 0.32 0.36 0.30 0.27 0.31 0.35 0.41 0.30 0.19 0.18 0.19 0.30 0.42 0.45 0.42 0.34 0.28 0.26 0.26 0.31 0.43 0.46 0.42 0.43 0.51 0.70
0.01 0.02 0.02 0.02 0.08 0.42 0.79 0.74 0.67 0.50 0.29 0.18 0.11 0.11 0.19 0.33 0.39 0.54 0.65 0.56 0.56 0.65 0.63 0.65 0.57 0.45 0.38 0.39 0.44 0.44 0.59 0.58 0.49 0.40 0.34 0.27 0.27 0.27 0.29 0.30 0.31 0.36 0.46
0.01 0.02 0.02 0.02 0.04 0.30 0.83 0.92 0.68 0.37 0.23 0.16 0.13 0.09 0.12 0.24 0.28 0.37 0.53 0.64 0.75 0.90 0.95 0.94 0.89 0.78 0.56 0.49 0.49 0.58 0.67 0.79 0.76 0.55 0.49 0.37 0.34 0.36 0.31 0.28 0.31 0.34 0.43
0.02 0.02 0.02 0.02 0.02 0.17 0.67 0.78 0.48 0.26 0.17 0.14 0.10 0.09 0.10 0.18 0.25 0.33 0.38 0.43 0.49 0.65 0.89 1.01 1.06 0.77 0.59 0.51 0.64 0.79 0.79 0.87 0.83 0.75 0.84 0.70 0.45 0.43 0.39 0.43 0.49 0.45 0.46
0.02 0.02 0.02 0.02 0.02 0.08 0.52 0.65 0.37 0.21 0.13 0.10 0.06 0.07 0.08 0.12 0.25 0.46 0.49 0.43 0.38 0.45 0.67 0.88 1.10 0.94 0.76 0.76 0.99 1.25 1.32 1.22 0.89 0.77 0.94 1.02 0.65 0.53 0.55 0.58 0.59 0.52 0.49
0.03 0.02 0.02 0.02 0.01 0.03 0.31 0.55 0.36 0.19 0.12 0.08 0.05 0.05 0.08 0.12 0.26 0.52 0.57 0.45 0.32 0.31 0.39 0.66 0.95 1.09 1.08 1.13 1.30 1.63 1.76 1.59 1.20 0.81 0.87 1.07 0.94 0.78 0.81 0.86 0.78 0.64 0.53
0.03 0.02 0.02 0.01 0.01 0.01 0.14 0.39 0.41 0.24 0.13 0.08 0.07 0.06 0.11 0.24 0.37 0.54 0.53 0.50 0.58 0.44 0.37 0.39 0.45 0.57 0.69 0.78 1.01 1.34 1.58 1.59 1.31 1.17 0.98 1.04 1.18 1.15 1.26 1.13 0.99 0.75 0.56